Regional Weather Roundup
Issued by NWS

Home | Current Version | Previous Version | Graphics & Text | Print | Product List | Glossary Off
Versions: 1 2 3 4 5 6 7 8 9 10 11 12 13 14 15 16 17 18 19 20 21 22 23 24 25 26 27 28 29 30 31 32 33 34 35 36 37 38 39 40 41 42 43 44 45 46 47 48 49 50

000
ASUS43 KTOP 130359
RWRKS

WEATHER ROUNDUP FOR KANSAS
NATIONAL WEATHER SERVICE GOODLAND KS
1100 PM CDT SAT JUL 12 2014

NOTE:  "FAIR" INDICATES FEW OR NO CLOUDS BELOW 12,000 FEET WITH NO
SIGNIFICANT WEATHER AND/OR OBSTRUCTIONS TO VISIBILITY.

KSZ001>006-013>018-027>032-041>047-130500-
NORTHWEST KANSAS

CITY           SKY/WX    TMP DP  RH WIND       PRES   REMARKS
GOODLAND       CLOUDY    73  66  78 NE8       30.19R
HAYS           MOCLDY    77  64  65 N16       30.04R
HILL CITY      MOCLDY    76  67  73 N8        30.09R
RUSSELL        MOCLDY    79  71  76 N14       30.01R
$$

KSZ061>065-074>080-084>089-130500-
SOUTHWEST KANSAS

CITY           SKY/WX    TMP DP  RH WIND       PRES   REMARKS
DODGE CITY     MOCLDY    78  62  57 S6        30.05R
ELKHART          N/A     80  59  48 S8          N/A
GARDEN CITY    CLOUDY    80  66  62 NE12      30.08R
GREAT BEND     CLOUDY    82  64  54 S10       29.99R
LIBERAL        PTCLDY    81  57  44 S8        30.10R
$$

KSZ066>073-081>083-090>101-130500-
SOUTHEAST KANSAS

CITY           SKY/WX    TMP DP  RH WIND       PRES   REMARKS
CHANUTE        CLEAR     79  68  69 S9        30.03R
COFFEYVILLE    CLEAR     79  67  66 S8        30.03R
HUTCHINSON     PTCLDY    80  65  59 S5        30.00R
MEDICINE LODGE   N/A     81  63  54 S7        30.01R
NEWTON         CLEAR     79  61  53 S8        30.04R
PARSONS        CLEAR     80  66  62 S6        30.05R
WICHITA INTL   PTCLDY    76  64  66 S9        30.00R
WICHITA JABRA  CLEAR     78  63  59 S10       30.01R
WINFIELD       CLEAR     81  61  50 S13       30.03R
$$

KSZ007>012-019>026-033>040-048>060-102>105-130500-
NORTHEAST KANSAS

CITY           SKY/WX    TMP DP  RH WIND       PRES   REMARKS
CONCORDIA      PTCLDY    78  73  84 NE8       30.01R
EMPORIA        CLEAR     78  68  71 S12       30.00R
LAWRENCE       CLEAR     83  68  60 S6        29.97S
MANHATTAN      MOCLDY    83  68  60 SW7       29.96R
OLATHE IND     CLEAR     79  70  74 S9        30.00S
OLATHE EXE     CLEAR     80  69  69 S9        29.99S
SALINA         CLOUDY    83  67  58 S6        29.97R
TOPEKA BILLARD PTCLDY    84  68  58 S10       29.97R
TOPEKA FORBES  CLEAR     82  68  62 S10       29.98R
$$


USA.gov is the U.S. government's official web portal to all federal, state and local government web resources and services.